Location: Beneden-Haastrecht
(52.0012°N, 4.7557°E)
Time: 14:32:44
(UTC+00:00)

CZ-2C R/B - Pass Details

Date: 24 October 2020
Orbit: 703 x 909 km, 98.1° (Epoch: 28 November)

Event Time Altitude Azimuth Distance (km) Brightness Sun altitude
Rises 18:01:00 0° 158° (SSE) 3,527 6.2 -15.0°
Reaches altitude 10° 18:03:25 10° 157° (SSE) 2,586 5.5 -15.4°
Maximum altitude 18:09:13 78° 73° (ENE) 921 3.2 -16.3°
Drops below altitude 10° 18:14:54 10° 348° (NNW) 2,531 5.9 -17.2°
Sets 18:17:15 0° 347° (NNW) 3,447 6.6 -17.5°
